Theta_e
305 305 307 312 315 318 319 320 320 320 323 322 321 321 320 320 321 322 321 321 322 321 321 323 325 323 323
295 299 300 302 307 311 312 316 320 320 319 321 321 321 320 320 320 320 320 320 320 321 321 321 322 322 322
292 293 294 296 299 303 307 309 311 315 317 318 320 320 319 320 321 321 320 320 320 320 320 321 322 322 322
289 290 291 293 296 299 301 305 307 309 312 312 315 316 318 319 319 320 320 321 321 322 322 322 322 323 323
287 288 289 290 293 293 296 298 301 304 307 308 310 312 313 314 315 318 318 319 319 320 320 322 322 323 323
288 289 290 291 292 293 292 292 294 297 302 304 306 307 309 312 314 317 319 319 319 318 320 321 322 322 323
289 288 289 290 290 290 291 292 292 291 292 295 301 304 305 307 310 313 316 318 318 319 318 320 321 322 319
288 288 288 288 289 288 288 289 289 288 288 292 292 294 300 302 305 310 314 317 317 319 319 320 320 318 319
288 288 287 288 288 288 287 287 287 287 288 291 290 293 294 296 299 304 310 312 313 314 316 317 318 318 317
287 288 287 287 288 288 287 287 288 288 293 294 293 294 297 299 300 299 304 309 311 312 313 317 317 316 315
286 286 286 287 287 286 286 286 287 287 288 289 289 291 292 294 299 301 301 305 307 309 310 311 312 314 315
285 285 285 285 285 286 286 285 285 286 286 286 286 287 288 290 292 294 298 299 303 306 307 309 310 310 312
284 285 285 286 287 286 285 284 284 285 285 286 285 286 287 288 288 291 294 299 301 304 305 305 307 308 308
283 283 284 284 286 285 284 284 283 284 284 285 286 287 287 288 290 290 293 295 298 300 302 304 304 305 306
283 283 283 284 284 284 284 283 283 283 284 285 287 287 288 288 289 290 292 293 295 297 300 302 303 303 304
283 283 283 284 284 284 284 283 283 283 283 284 286 287 288 289 289 290 291 292 294 296 298 299 301 302 303
282 282 283 283 284 284 284 283 283 283 284 285 287 288 288 289 289 290 292 292 293 295 296 298 299 300 301
Wind_Speed
31 30 25 20 14 22 24 25 26 27 34 48 42 42 38 38 38 37 35 35 34 33 33 37 35 35 41
22 29 27 23 25 19 14 18 27 29 28 34 36 39 41 40 39 41 41 40 41 39 38 39 43 45 42
22 20 21 18 24 23 23 19 12 14 22 24 32 35 38 40 42 43 44 46 48 47 45 42 43 43 45
23 22 20 18 18 19 22 23 22 19 14 12 15 19 25 34 35 33 35 34 36 37 39 44 44 44 43
23 22 22 22 19 21 22 22 21 19 19 18 17 16 14 16 18 23 27 31 32 34 34 39 44 42 43
23 21 22 20 21 23 23 24 22 15 22 26 23 25 23 20 17 22 25 27 29 33 37 37 44 46 45
23 21 22 22 23 25 24 24 24 25 26 32 25 28 25 24 23 21 23 24 22 28 33 36 43 58 50
24 24 22 24 24 26 29 31 31 28 22 24 24 27 25 27 22 21 20 20 13 13 18 31 44 38 28
25 25 27 25 25 27 27 25 28 26 23 19 23 22 23 26 23 20 18 16 15 20 14 30 34 32 31
25 24 23 24 24 23 23 22 20 17 5 10 11 15 10 13 12 19 21 18 20 23 29 30 30 33 30
31 30 27 23 24 26 24 22 23 22 24 24 27 24 23 25 19 13 11 15 19 20 22 25 32 36 34
26 28 27 27 24 23 21 19 20 24 28 25 28 29 29 29 29 27 20 18 17 17 22 24 26 31 33
22 24 25 22 22 22 21 21 23 25 28 28 27 25 26 29 30 27 24 17 17 17 19 22 27 29 34
23 24 25 24 18 18 24 25 26 29 24 19 18 21 26 27 26 31 30 28 19 24 21 22 26 28 31
22 23 23 23 22 20 21 25 25 27 25 17 14 19 24 27 28 27 30 32 31 27 23 25 28 28 27
21 22 21 21 22 21 20 21 24 26 28 20 17 19 21 25 28 31 30 32 34 31 28 32 30 29 28
22 22 20 20 19 22 21 21 25 23 21 17 17 17 21 24 24 21 25 30 33 34 31 32 35 32 28
Wind_Direction
300 311 312 313 311 269 274 276 272 257 237 236 232 228 233 239 240 241 239 240 243 242 249 235 241 247 248
311 303 311 319 308 306 322 268 257 258 258 249 243 240 235 249 243 245 244 246 244 241 244 245 242 244 256
313 313 309 310 301 298 297 298 308 262 250 245 241 244 246 246 244 250 253 252 248 245 244 240 239 239 234
320 320 321 315 311 310 297 294 294 291 283 281 246 240 242 238 240 238 244 245 243 240 240 236 235 236 237
327 323 321 323 326 313 307 304 296 307 290 283 273 271 257 248 254 250 252 250 249 245 244 240 233 235 225
324 322 320 322 315 314 317 318 318 282 282 275 275 271 272 266 257 246 244 242 248 246 240 235 235 231 229
318 313 307 312 311 308 309 308 302 297 299 287 276 270 269 267 262 258 242 237 254 244 230 225 232 225 211
310 311 306 302 302 304 304 301 297 294 297 294 289 279 262 259 260 257 250 236 238 226 229 237 223 204 211
299 298 300 297 295 301 302 303 301 297 292 293 294 295 282 262 258 257 250 235 233 236 228 206 209 212 214
301 299 297 295 295 297 303 297 298 312 260 294 293 308 315 302 274 256 256 247 227 219 227 229 224 217 215
297 293 291 295 291 297 300 283 275 273 272 280 284 272 274 282 261 258 265 251 251 235 229 227 228 220 221
297 299 298 295 291 291 293 298 273 272 276 281 277 269 269 268 272 262 266 262 265 254 240 233 227 229 231
302 300 303 301 283 283 292 297 292 278 275 278 279 276 268 267 266 264 262 258 260 256 254 244 236 226 225
305 301 299 297 291 284 294 300 297 293 285 271 270 270 269 267 264 257 253 254 253 256 253 251 248 241 237
304 306 300 297 292 290 292 302 299 297 295 280 272 273 266 263 263 258 253 250 245 247 249 251 246 245 240
307 306 302 297 294 291 288 294 299 297 295 284 283 285 274 266 255 253 253 248 249 242 245 242 244 242 242
299 301 303 303 298 290 283 291 302 301 296 290 291 294 280 274 270 260 252 248 245 248 246 240 243 240 242